GFSWCAN_925_thetae_021.txt.gz
Theta_e
291 291 291 291 291 291 291 290 291 293 298 294 299 301 301 302 302 303 303 302 301 303 301 302 302 303 304 305 308 306 306 308 309 310 311 312 313 313 314 315 317 319 317 316 316 318 326 318 315 320 316 315 315 316
299 294 291 291 292 291 291 291 291 292 298 293 298 300 302 302 302 302 303 301 300 301 302 301 301 301 301 302 304 305 306 307 308 309 310 310 314 313 315 314 314 317 317 319 319 320 315 313 315 314 313 314 315 316
303 301 296 293 292 292 292 291 291 294 296 292 294 300 302 302 302 302 303 302 300 301 302 302 303 301 301 302 302 304 306 305 308 306 308 308 312 310 314 313 310 313 312 316 316 315 313 313 313 312 312 314 314 314
305 304 303 301 295 292 293 292 292 294 296 292 292 299 301 303 303 302 302 301 299 301 304 304 300 303 302 304 304 302 303 304 304 306 308 310 313 310 312 310 313 312 312 313 313 313 312 313 311 311 311 312 312 313
305 305 305 304 302 294 292 294 292 292 296 294 292 297 300 303 303 303 302 301 300 303 306 306 304 303 303 305 306 304 304 305 306 308 309 309 309 311 312 312 311 310 312 312 313 310 311 310 310 311 311 312 313 313
305 305 305 305 304 301 293 294 294 292 295 294 292 297 302 304 303 301 304 302 301 300 304 306 304 304 304 306 307 308 306 305 306 309 310 309 307 310 311 312 310 308 308 309 311 311 311 311 311 311 311 311 312 312
305 305 305 305 304 304 299 295 295 294 295 293 293 302 304 305 304 302 304 302 304 301 304 305 305 305 304 307 309 308 305 306 307 308 309 308 308 307 309 311 309 308 307 307 307 310 312 311 312 311 311 310 311 312
304 304 305 304 304 304 302 296 295 295 295 294 296 303 305 305 304 304 304 305 303 303 303 305 308 308 306 309 310 307 307 306 306 307 307 308 308 308 310 310 308 307 307 307 308 308 308 309 310 311 311 311 312 312
302 303 304 304 304 304 303 299 295 294 297 294 299 305 304 303 304 303 304 303 302 302 306 305 306 310 307 309 307 307 305 309 306 309 310 308 308 311 309 307 307 306 307 309 307 307 308 310 311 311 311 311 313 313
303 301 301 303 303 304 303 301 295 294 298 295 303 304 306 303 304 304 303 304 305 305 303 306 306 308 307 309 308 307 305 307 310 309 308 308 311 307 307 306 307 308 307 308 310 308 308 309 310 310 310 311 312 314
301 300 300 302 303 303 302 297 294 293 296 296 298 303 300 302 303 304 308 307 307 309 308 308 307 308 307 310 307 305 306 306 310 310 310 312 312 310 309 308 308 309 310 309 309 309 308 309 309 310 311 311 312 313
299 300 300 300 301 302 302 295 294 295 295 296 297 297 299 304 304 306 306 305 308 310 308 310 309 308 308 305 307 306 306 306 310 306 310 312 311 310 309 308 308 309 310 310 310 311 310 311 311 310 311 311 312 312
299 299 300 300 301 301 301 295 297 294 296 299 300 303 305 304 306 308 308 309 309 308 308 308 309 308 305 304 305 306 307 308 304 310 312 312 311 310 309 307 308 309 310 310 310 311 311 312 311 312 311 310 311 312
299 300 300 299 300 299 294 297 299 295 297 301 305 307 306 307 307 309 309 309 308 306 306 306 307 309 306 307 306 307 305 304 309 311 312 311 310 310 308 308 308 309 309 310 310 310 311 311 312 313 313 312 311 312
299 299 299 300 298 296 299 301 298 296 298 303 306 309 308 307 306 306 305 306 306 305 305 306 305 305 307 307 306 305 307 308 308 313 312 312 310 309 308 308 308 309 310 310 310 310 311 311 312 312 313 313 312 311
298 298 299 297 298 300 299 299 297 299 300 303 306 308 306 305 306 305 306 307 305 304 303 304 307 307 308 306 306 306 307 308 315 307 311 310 309 309 308 308 308 309 309 310 310 310 311 310 310 311 310 311 312 312
297 298 299 298 298 300 299 296 299 304 305 309 310 308 307 306 307 306 306 306 303 306 308 307 310 310 304 307 306 305 307 313 310 310 310 308 308 308 307 307 308 308 309 309 309 309 309 309 310 310 310 309 311 312
297 297 298 298 297 297 295 297 301 306 309 310 310 309 304 306 306 306 305 304 305 306 306 309 306 310 311 309 310 308 306 307 308 308 309 309 307 307 305 307 307 306 307 308 309 308 308 309 310 311 309 308 308 308
297 298 298 298 297 295 296 298 301 304 308 308 305 304 303 305 304 305 305 304 304 304 307 308 310 311 311 308 308 309 309 308 310 309 308 308 307 306 305 306 306 306 307 307 308 308 308 309 309 309 309 307 308 307
296 297 297 296 295 296 298 300 301 305 307 307 304 305 305 306 304 304 305 304 304 306 307 308 309 310 309 310 309 309 309 308 308 309 310 309 307 306 306 305 306 306 307 307 308 307 308 307 308 308 308 307 307 306
296 296 295 297 295 295 297 299 300 303 305 306 305 305 307 303 304 305 305 303 304 306 307 307 307 308 307 307 306 307 308 307 308 309 309 309 308 306 306 305 305 306 306 307 308 308 308 308 307 306 308 306 306 305
296 296 296 295 296 297 298 297 298 299 300 304 304 304 305 306 305 305 303 305 306 306 306 307 307 307 307 306 307 306 307 306 306 306 304 304 308 307 307 305 305 306 306 306 306 307 307 307 304 305 305 305 304 302
295 295 294 295 297 299 300 300 301 303 301 300 303 305 304 303 303 301 305 305 305 305 305 305 306 305 306 305 305 305 306 306 308 308 306 306 306 306 306 305 304 306 307 306 305 305 305 305 304 304 302 303 304 303
295 294 297 297 297 298 299 302 302 304 303 304 305 306 305 305 302 304 305 305 305 304 304 305 304 306 306 306 307 308 307 306 307 306 305 306 307 307 306 305 304 304 304 305 305 304 304 304 303 302 302 303 301 301
297 296 296 298 298 301 301 302 303 303 305 305 305 305 305 302 305 305 304 304 304 304 304 305 305 305 307 307 308 307 304 305 307 307 305 304 305 305 305 304 302 302 303 305 305 304 303 303 302 301 300 298 298 301
297 295 297 297 298 300 301 304 304 304 303 304 304 304 302 304 304 304 304 302 302 302 302 302 304 305 305 306 308 307 305 304 305 306 304 303 304 305 304 304 304 303 302 304 304 303 301 300 300 299 297 296 295 297
297 295 295 295 297 298 300 301 301 302 303 303 304 303 304 303 304 303 301 301 302 301 300 300 302 303 304 305 305 305 305 303 304 305 303 302 301 300 301 302 302 301 302 302 301 300 300 299 298 296 295 295 294 294
295 295 296 297 296 297 300 300 301 302 303 302 303 304 304 304 304 302 302 301 301 301 301 300 299 300 302 303 303 302 302 302 301 301 299 298 298 298 299 300 300 302 301 300 299 299 297 296 296 294 294 294 293 293
295 295 295 295 296 297 298 299 299 300 300 302 303 302 302 303 302 303 302 301 301 301 301 302 301 299 299 299 300 302 302 301 303 303 304 303 301 299 298 300 300 300 297 296 296 295 294 294 293 293 292 292 292 291
294 293 295 296 296 296 297 297 298 299 299 300 300 300 300 301 301 300 299 299 300 300 300 300 300 299 300 301 300 298 297 299 299 301 303 302 301 297 297 297 299 299 298 297 295 292 291 291 290 290 290 290 290 289
294 294 295 295 296 297 297 297 297 297 297 298 299 299 300 299 299 296 295 296 297 299 300 300 299 300 300 299 299 299 298 295 297 298 297 297 296 295 295 296 296 297 298 296 294 292 291 290 290 289 288 288 287 287
295 295 295 295 295 296 296 296 297 297 298 298 298 298 298 298 299 296 292 292 294 295 296 297 299 299 296 295 294 294 294 292 292 292 293 294 295 295 295 295 296 296 295 293 291 290 290 289 288 287 286 286 285 285
294 294 295 295 296 295 296 297 298 298 298 299 298 299 299 300 298 292 289 289 290 290 291 291 290 291 291 291 290 290 291 291 291 292 292 292 293 293 293 294 293 292 291 290 289 288 288 287 286 286 285 284 284 283

GFSWCAN_925_thetae_024.txt.gz
Theta_e
305 305 303 301 299 294 293 293 292 292 295 294 294 300 301 302 302 303 304 303 302 304 303 304 304 305 305 306 308 307 309 309 310 312 313 313 315 315 315 316 316 317 316 316 317 322 329 319 320 326 321 321 321 322
305 305 305 304 304 303 297 293 294 292 292 295 295 296 301 302 303 303 305 305 302 302 304 303 303 303 303 304 305 305 308 307 308 311 311 311 314 316 315 321 315 322 319 322 321 322 315 318 317 317 317 319 320 320
303 305 305 305 305 304 304 298 295 296 293 293 295 294 300 301 302 303 304 304 302 303 305 307 307 304 303 303 303 303 306 307 308 308 309 311 313 309 316 315 314 313 312 318 318 316 313 313 314 314 315 316 317 319
303 304 305 304 305 304 304 304 299 297 295 294 294 296 300 301 302 302 304 304 302 303 305 309 306 307 305 303 303 302 301 303 304 306 310 311 313 311 314 312 315 314 313 315 318 315 313 313 312 313 313 314 315 317
303 304 305 304 305 305 304 305 303 298 296 295 295 299 299 301 302 303 304 305 303 304 309 308 306 306 306 305 306 305 303 304 307 309 311 310 310 312 313 312 314 310 312 315 318 313 313 313 312 312 313 313 313 316
304 304 304 304 304 304 304 304 304 301 296 296 296 296 298 302 302 305 308 305 304 302 304 308 308 308 308 309 309 309 309 307 308 310 309 310 310 311 312 311 311 310 310 310 312 311 312 312 312 312 311 312 313 315
304 304 303 303 302 304 304 304 304 304 301 296 297 295 302 305 304 307 309 306 303 301 305 308 311 309 308 310 310 310 309 310 311 311 311 311 310 310 310 314 310 309 309 309 310 311 313 314 313 311 311 313 313 316
302 302 301 302 301 301 302 303 304 303 299 298 297 301 305 305 305 307 306 304 303 305 306 308 313 311 310 311 312 309 310 310 310 311 312 312 311 312 313 311 308 308 307 308 309 310 311 311 311 312 312 313 314 315
300 301 301 301 301 301 301 302 302 295 299 300 295 304 305 306 308 307 304 303 304 305 308 309 311 313 311 310 309 310 309 311 310 311 311 310 312 315 310 308 308 308 309 310 309 310 311 311 311 312 313 314 314 315
299 300 300 300 300 300 301 301 301 295 301 299 302 307 311 307 303 304 304 306 306 307 306 309 309 311 310 310 309 310 310 311 314 313 310 312 313 311 308 307 308 309 310 310 312 312 311 312 312 312 313 313 313 315
297 299 300 300 300 300 300 301 299 298 300 301 302 303 301 301 306 309 311 311 311 311 310 311 311 312 310 311 309 308 312 311 314 314 313 312 312 312 311 311 310 310 310 310 310 312 311 312 311 313 314 313 313 314
295 297 298 299 300 300 300 300 297 300 301 298 298 297 299 304 310 311 311 311 312 311 312 312 312 311 311 309 309 309 311 311 314 311 313 311 311 310 310 311 311 311 310 310 310 311 313 313 314 313 314 314 314 313
295 296 297 298 300 300 300 298 297 298 298 300 300 302 306 309 310 311 310 311 311 310 310 310 311 311 309 309 310 310 310 314 312 315 312 312 311 310 311 310 310 310 311 311 310 310 311 312 312 314 315 314 315 314
295 296 298 299 299 299 298 297 298 299 299 303 305 309 311 311 312 312 311 309 309 309 309 310 310 312 311 311 310 310 311 311 314 315 314 312 312 312 311 310 310 310 310 311 311 312 312 311 311 312 312 312 314 316
294 296 297 298 298 298 299 299 299 298 301 304 306 309 310 310 310 310 310 310 310 310 310 310 310 310 312 311 310 310 311 314 314 316 313 313 312 312 312 311 311 310 311 310 310 310 310 311 312 312 311 311 312 313
294 296 298 298 298 299 298 299 300 300 301 304 307 311 311 310 309 309 310 310 310 310 309 310 310 311 311 311 310 311 311 313 313 315 312 312 312 312 312 311 310 310 310 310 310 309 310 310 311 311 310 308 308 308
294 298 296 297 298 298 298 298 301 302 304 308 311 310 308 309 308 307 307 308 309 310 309 308 308 309 311 312 315 310 311 312 314 310 311 312 312 311 310 310 310 309 310 309 309 309 309 311 311 310 310 309 309 309
295 296 296 298 298 298 299 298 303 305 307 309 311 310 310 310 309 309 308 308 309 309 309 309 309 310 312 314 314 312 313 313 311 310 309 311 312 310 309 310 309 308 308 309 309 308 309 310 312 312 311 309 308 308
294 295 295 296 298 297 298 300 302 305 307 309 310 310 310 309 309 309 308 308 309 309 309 309 308 309 310 309 309 308 308 310 309 309 310 312 311 310 309 309 308 308 308 308 308 308 308 308 309 310 310 309 310 307
293 294 296 296 296 297 300 302 301 304 306 309 309 309 309 309 308 308 309 308 308 309 308 308 309 308 308 309 309 308 308 309 311 310 309 310 309 310 309 309 308 308 307 307 306 307 307 307 307 307 309 308 307 305
294 296 296 296 296 296 298 303 303 303 305 306 307 308 309 309 309 308 309 308 308 308 308 307 307 307 308 308 307 308 309 310 310 309 308 308 309 309 308 308 308 307 307 307 307 307 307 307 307 307 308 308 307 305
294 295 296 296 297 298 299 301 303 302 302 304 305 306 307 308 308 308 307 308 307 308 308 308 308 308 307 307 308 309 308 309 310 309 307 306 308 308 309 308 307 307 307 307 306 306 306 306 305 307 307 307 306 305
293 294 295 296 298 299 300 301 303 303 305 305 304 305 306 307 306 305 307 307 308 308 307 307 307 307 307 306 307 308 309 309 310 310 309 308 308 308 307 307 306 306 307 306 306 306 306 305 306 305 305 305 306 304
295 296 296 296 298 300 300 303 303 304 306 307 307 306 306 307 306 307 306 306 307 307 306 306 307 307 307 309 308 308 309 309 309 309 309 308 308 307 306 305 305 305 305 306 306 306 305 305 304 304 304 303 303 303
296 297 296 296 298 300 301 301 302 304 305 305 306 306 306 306 307 306 306 306 306 306 306 306 306 307 308 308 308 308 308 308 309 310 307 307 307 305 304 303 304 304 305 305 305 305 304 303 303 303 302 300 298 300
297 297 297 297 299 300 302 301 302 303 304 304 304 305 306 306 306 306 306 306 306 306 306 306 307 307 306 306 307 307 308 307 308 309 307 306 304 304 303 302 303 304 305 305 304 303 303 302 301 301 300 299 297 298
294 296 298 298 299 300 301 302 302 303 303 304 304 305 306 307 306 305 305 305 305 304 303 303 304 306 307 306 306 307 307 307 307 306 306 305 304 303 302 302 303 304 304 303 302 302 302 302 301 299 299 297 296 295
294 295 295 298 298 299 299 300 300 300 302 303 304 305 306 305 305 305 305 304 303 302 302 302 302 303 305 306 306 307 307 306 306 306 305 304 303 303 303 303 303 303 303 302 302 301 300 300 299 298 297 296 295 294
294 295 296 296 296 297 298 298 298 299 299 300 301 301 301 301 303 304 303 302 302 301 302 302 302 303 303 304 305 306 306 306 306 306 305 305 304 302 303 303 302 302 301 298 298 298 297 297 297 296 296 295 294 293
294 295 295 295 295 296 297 297 297 298 298 298 299 300 300 301 302 301 301 301 301 301 301 302 302 302 303 304 305 305 305 305 304 304 304 304 304 303 302 302 302 301 300 299 298 294 293 295 294 295 295 294 293 292
294 295 295 296 296 296 296 297 297 298 298 298 298 299 300 300 299 293 292 294 298 299 299 300 302 302 303 303 303 305 304 302 302 302 301 302 302 301 301 301 301 301 300 299 298 297 296 295 295 294 293 292 291 291
295 295 296 296 296 296 297 297 297 298 298 299 299 299 299 299 302 295 289 290 292 294 293 292 295 297 297 297 297 297 298 299 298 297 298 299 299 298 298 298 299 299 299 298 297 296 295 294 293 292 290 290 289 288
295 295 296 296 297 297 297 297 297 298 299 300 300 300 300 300 295 292 289 288 288 289 289 290 291 292 292 292 291 291 291 290 291 292 293 294 294 296 297 297 297 297 296 295 294 293 293 292 291 290 289 288 287 286

GFSWCAN_925_thetae_030.txt.gz
Theta_e
306 306 305 305 304 304 304 305 304 305 304 304 302 300 300 300 301 301 303 305 307 308 308 308 309 310 310 310 310 309 308 310 313 314 313 314 317 314 317 317 319 323 322 324 323 322 325 316 321 327 326 326 325 326
304 304 304 304 303 304 304 304 304 304 304 304 304 303 301 300 301 300 302 306 307 307 308 306 307 308 309 309 307 306 307 308 309 311 313 314 316 314 315 318 315 321 317 318 322 320 316 316 318 317 319 322 323 323
304 305 304 304 304 304 304 304 303 304 304 303 303 303 303 302 301 300 301 305 306 306 309 311 311 310 310 308 308 309 306 306 307 309 310 313 313 314 317 317 315 314 314 317 317 315 316 316 316 317 318 319 320 321
305 305 304 303 303 303 302 303 302 303 303 303 303 303 302 301 300 300 302 305 306 306 309 312 311 310 310 309 309 307 307 305 306 307 310 314 316 315 314 314 316 314 314 315 315 315 316 315 316 316 317 317 319 320
303 303 303 303 302 301 301 302 302 301 302 303 303 304 301 300 300 301 303 306 306 307 311 310 308 311 310 310 310 309 308 306 306 310 313 316 314 313 317 313 315 314 315 316 316 314 315 314 314 315 317 317 318 319
301 300 300 300 300 300 301 301 301 301 301 302 303 303 299 299 301 305 309 309 308 307 308 312 311 312 311 311 312 311 311 307 309 312 315 316 315 314 317 315 312 311 311 311 313 312 313 313 314 313 314 316 317 318
296 296 298 298 299 299 300 300 301 300 301 301 304 302 299 299 303 309 310 307 308 307 308 311 313 313 312 312 313 313 313 314 313 315 317 316 316 316 316 313 312 311 311 311 312 312 313 312 312 313 314 315 317 318
295 295 294 297 298 298 299 300 301 301 301 302 304 301 300 305 305 308 308 307 308 309 309 311 313 312 314 313 313 313 313 315 315 316 314 315 314 312 314 312 312 311 310 311 312 312 313 313 313 314 313 315 316 318
293 293 294 294 294 296 298 299 300 300 301 303 303 302 304 307 310 309 307 306 307 309 312 311 315 317 313 313 312 313 313 315 314 316 314 314 314 315 314 313 313 312 312 311 311 313 313 314 314 314 314 314 316 317
295 295 295 295 296 296 297 299 299 301 302 305 306 309 313 307 304 306 307 308 307 307 309 311 312 317 312 313 313 313 314 316 319 317 314 317 316 314 312 313 313 312 311 311 313 314 314 315 315 315 315 315 315 316
293 294 294 295 296 296 297 298 300 301 304 306 308 309 306 304 306 310 310 311 311 312 310 312 313 314 313 315 314 312 315 313 317 317 314 317 315 313 311 310 311 312 312 312 311 312 314 313 314 315 315 316 316 317
294 294 294 295 295 296 297 298 299 302 303 302 301 301 304 306 309 309 313 313 314 316 315 313 314 316 314 313 313 313 314 314 315 315 315 317 314 312 311 310 311 311 310 312 311 312 313 312 313 314 314 314 315 315
293 294 294 294 293 295 296 298 299 299 300 302 302 303 306 309 313 313 313 314 313 313 312 312 312 314 314 311 312 313 314 316 316 317 316 316 313 312 311 311 311 310 310 310 311 312 311 312 310 310 311 311 312 313
293 293 294 293 297 299 298 297 297 299 302 306 308 309 310 312 313 314 314 314 312 312 310 310 311 313 313 313 312 314 313 314 316 317 316 317 314 313 312 311 311 311 310 310 310 313 313 313 312 311 311 310 310 310
292 292 293 297 297 297 297 298 298 300 304 308 310 312 312 312 313 313 313 313 312 311 311 310 311 312 313 313 313 313 313 316 316 318 317 317 314 314 314 312 311 310 310 310 310 310 311 312 312 312 311 310 309 308
292 294 298 296 296 296 295 298 300 302 304 307 308 312 313 314 314 313 312 312 312 311 311 311 310 311 314 313 313 313 315 316 317 318 314 316 313 314 313 311 311 310 310 310 310 310 309 309 311 312 310 310 309 308
291 296 295 295 295 295 297 299 302 305 305 306 309 310 311 311 312 313 314 313 312 312 312 312 315 313 312 315 316 319 318 317 316 314 313 314 313 312 313 311 310 311 310 309 309 309 310 308 310 311 312 310 310 309
293 294 293 292 293 296 300 301 304 305 305 306 307 307 308 310 312 314 313 314 313 311 311 312 312 312 315 315 315 318 317 314 312 313 312 312 312 310 311 312 309 310 310 310 309 309 310 309 310 310 309 309 308 308
292 291 292 292 294 296 300 302 303 306 306 307 308 309 310 311 312 312 313 313 313 312 311 311 311 312 313 312 313 313 312 313 313 312 313 311 311 310 310 309 309 309 310 310 310 308 310 309 309 309 309 308 309 307
291 292 294 295 296 299 300 303 303 305 306 307 307 309 310 310 311 312 313 313 312 313 312 312 311 312 312 312 312 312 313 313 313 313 312 312 311 311 310 309 310 309 309 309 308 307 309 308 307 309 309 307 307 307
293 294 294 296 297 298 300 302 303 305 305 306 306 308 309 309 309 312 313 312 313 313 313 312 313 313 312 312 311 313 311 312 311 311 312 312 312 311 310 310 309 309 308 309 309 307 308 308 306 308 308 308 307 305
293 294 294 295 296 298 300 299 302 302 303 304 306 306 307 307 307 308 309 311 312 313 312 312 312 311 312 312 312 312 310 310 310 310 309 310 312 312 312 311 311 311 309 308 308 308 308 308 306 306 305 306 305 304
294 294 294 294 297 298 299 299 300 301 303 303 305 305 307 309 308 309 311 310 310 310 310 311 312 311 312 311 311 310 310 310 310 311 310 309 310 309 310 310 309 309 308 307 308 307 308 306 306 305 305 305 305 304
294 295 299 298 298 298 298 300 302 302 303 304 304 304 305 306 307 308 308 310 310 309 310 311 311 311 311 311 310 310 310 310 309 309 309 310 310 310 310 309 308 308 307 306 306 307 307 306 305 305 305 304 304 303
294 297 298 298 298 298 298 298 300 303 302 303 303 304 305 305 308 307 308 308 308 309 310 310 310 309 309 309 310 310 309 309 310 311 310 309 310 310 310 309 308 306 306 305 306 306 306 305 305 304 304 302 302 302
295 295 298 297 297 297 298 298 298 299 300 301 303 303 305 305 304 305 306 307 310 309 310 309 309 309 309 309 309 310 310 309 309 310 309 309 309 310 310 308 308 306 305 304 304 305 304 304 303 303 302 300 300 301
293 294 295 296 298 298 298 300 300 300 301 302 304 305 306 307 306 307 309 305 306 309 308 307 307 307 307 307 307 307 307 308 309 309 309 309 309 308 308 308 306 306 305 304 303 303 304 303 303 303 303 302 301 299
294 293 293 295 295 297 296 297 298 298 299 302 303 303 308 307 306 303 305 302 301 303 305 306 306 305 305 305 305 306 307 307 308 308 308 308 307 307 307 305 304 304 304 303 303 303 302 302 303 302 301 301 300 298
294 295 294 295 296 297 297 297 298 299 299 300 301 301 301 301 302 303 304 303 301 302 303 303 303 303 303 303 303 304 305 307 308 309 310 309 307 306 304 304 303 303 303 301 301 302 301 301 301 300 300 300 299 297
295 295 296 297 297 297 296 297 297 298 299 299 299 299 300 301 299 298 298 300 301 301 302 302 302 303 304 305 306 306 306 305 307 307 308 309 306 305 304 304 303 302 303 302 300 298 297 297 297 298 299 299 298 297
296 296 298 298 297 297 297 298 298 298 298 299 298 299 299 300 296 293 293 294 296 296 297 297 297 295 297 297 301 303 303 298 299 300 300 303 305 305 305 305 304 304 303 302 301 300 298 299 300 299 298 297 296 296
298 298 298 299 300 299 298 299 300 300 299 298 299 299 299 299 298 293 291 291 291 292 291 292 293 293 292 293 295 296 295 295 294 295 295 300 302 304 305 304 304 303 303 303 302 301 301 300 299 298 296 295 294 293
298 298 299 299 299 298 299 299 299 299 299 300 299 299 297 297 294 293 290 290 289 289 290 290 290 291 291 292 292 293 293 293 294 296 298 298 300 301 301 302 302 302 302 302 301 300 300 299 297 296 295 293 292 290

GFSWCAN_925_thetae_033.txt.gz
Theta_e
305 304 304 304 305 305 304 305 304 303 304 303 303 303 303 303 302 300 301 300 302 308 307 307 308 309 308 309 311 308 307 307 307 308 311 312 311 313 315 316 319 318 320 320 320 323 323 314 317 323 322 322 325 323
305 305 304 304 304 304 305 305 303 302 303 303 302 302 303 302 302 301 301 301 304 307 307 307 307 307 307 307 308 307 307 307 307 309 309 311 313 311 313 317 313 319 315 316 315 317 315 315 316 316 317 320 320 321
304 304 303 303 303 303 303 303 303 302 303 302 302 302 302 303 302 301 301 301 302 306 307 308 309 310 309 308 309 307 306 306 307 307 309 311 313 313 314 314 315 314 314 316 316 316 314 315 314 314 316 317 318 319
303 302 302 302 302 301 301 301 301 301 302 302 302 302 302 303 303 301 300 300 303 306 307 308 308 308 309 310 309 308 307 306 305 305 308 311 313 314 315 314 315 314 314 315 315 314 315 315 314 315 316 315 318 317
302 301 301 297 295 298 299 299 300 300 300 301 301 302 302 303 302 300 301 302 302 307 309 308 307 310 309 310 310 309 308 306 306 309 312 313 314 314 314 312 313 312 313 314 315 313 313 313 314 314 314 314 316 317
300 297 295 293 293 296 298 299 299 299 300 301 301 303 301 303 301 301 308 307 304 307 307 309 308 308 312 311 311 310 310 307 306 310 313 313 313 313 314 314 312 310 311 310 312 311 312 312 312 312 312 313 314 316
296 293 292 293 295 293 295 297 298 299 300 301 300 301 301 301 301 304 309 307 307 308 308 309 310 313 312 312 313 312 312 311 311 314 314 314 313 314 312 313 312 311 310 310 311 311 313 313 312 312 312 313 313 316
294 294 295 295 296 295 295 295 297 298 299 299 301 301 302 302 303 305 307 308 308 308 309 310 310 311 313 314 313 313 313 313 313 313 314 314 313 312 312 312 312 312 311 310 311 311 312 313 313 313 313 313 314 315
294 295 295 295 295 295 296 296 297 297 298 301 303 304 304 305 309 310 308 307 306 308 310 310 311 313 314 313 313 311 312 313 314 316 315 312 313 312 313 312 312 311 311 311 312 313 314 315 315 315 315 315 317 318
294 294 294 294 295 295 295 296 296 297 299 304 306 307 311 306 304 306 306 308 307 307 308 309 309 313 312 313 313 312 313 314 316 316 314 315 315 313 313 312 312 311 311 310 311 312 313 314 314 315 315 315 316 317
294 294 294 294 295 295 295 296 297 299 303 304 306 307 304 305 305 310 311 309 310 310 309 309 309 310 314 316 314 311 313 313 316 315 316 316 315 312 311 312 312 311 311 311 311 312 312 312 313 314 313 314 314 314
293 293 294 294 294 294 294 295 298 299 300 299 300 301 302 306 308 310 312 313 313 314 313 314 314 315 314 312 312 311 312 314 316 315 316 317 315 312 311 311 311 310 311 310 311 311 312 310 311 311 311 311 311 312
292 293 293 293 294 296 298 298 297 298 299 302 302 303 304 307 310 309 312 315 317 315 316 315 315 314 313 311 312 311 312 312 314 315 317 316 314 311 311 311 312 309 309 312 312 311 312 312 311 311 310 310 310 310
292 292 293 293 296 297 297 296 296 297 300 305 307 308 307 308 312 312 313 315 315 314 313 312 314 314 313 313 313 314 312 313 313 314 316 314 314 314 313 311 310 311 310 310 313 311 312 312 311 311 309 308 308 308
292 292 294 297 296 296 296 296 295 299 302 306 309 310 310 310 312 313 313 313 314 313 311 312 312 313 314 314 314 313 312 313 312 311 314 313 312 313 312 311 311 310 310 309 310 309 309 311 311 310 310 309 308 307
292 294 297 295 294 293 294 294 297 299 303 306 307 309 311 312 313 313 315 315 314 313 313 312 312 313 315 314 314 313 312 309 310 313 313 314 312 313 312 312 311 309 310 309 311 310 310 311 311 310 310 310 307 306
292 295 294 294 293 292 295 297 300 302 304 306 307 308 308 309 310 311 311 314 312 314 313 314 314 314 313 315 315 313 311 309 315 313 313 313 313 314 312 311 312 310 310 309 310 310 311 310 309 309 308 307 308 307
292 293 293 292 292 294 298 300 302 305 305 305 305 304 305 306 307 308 310 312 315 315 314 314 314 314 314 315 316 312 314 314 313 312 313 312 312 312 312 310 312 311 309 309 309 311 310 310 309 308 308 308 306 305
292 291 292 294 294 294 297 300 302 303 304 305 306 306 307 308 309 310 310 312 313 314 313 313 313 313 313 313 313 314 314 313 313 313 311 310 313 310 311 310 310 310 309 310 309 310 309 309 309 309 307 306 305 304
291 292 293 294 295 297 298 299 302 305 305 306 304 305 306 307 309 309 310 313 312 313 314 314 313 312 311 312 311 311 310 312 312 313 312 310 313 312 312 310 310 309 309 310 308 311 310 310 310 308 307 306 305 303
292 294 293 295 296 297 298 299 301 304 305 305 305 305 306 308 308 309 308 309 312 314 314 313 312 312 312 312 312 311 312 311 310 312 311 312 312 312 311 310 311 311 310 309 309 308 308 307 309 308 307 305 304 304
292 292 293 294 295 297 299 298 300 301 301 302 301 301 302 303 304 305 305 306 307 312 312 312 313 312 312 312 312 312 312 312 312 310 310 310 312 311 310 310 309 309 309 308 308 309 307 305 307 306 305 304 303 302
293 294 294 295 294 297 297 298 299 300 300 302 303 303 304 305 306 306 308 309 308 308 309 310 312 312 312 311 313 311 311 311 311 310 309 310 310 311 311 311 310 309 308 309 308 308 307 307 305 306 305 304 304 302
293 294 295 295 296 297 298 298 300 301 301 302 302 303 303 304 305 305 306 306 307 308 309 311 312 311 311 312 312 311 311 311 310 310 310 309 309 310 310 310 310 309 309 308 307 308 307 306 305 304 304 304 303 302
293 294 295 296 298 298 297 297 298 299 299 300 300 301 301 302 303 303 304 305 308 309 310 311 310 311 311 311 310 310 311 310 310 309 310 309 310 310 311 310 309 308 307 307 307 307 307 306 305 304 302 302 302 301
294 294 296 296 297 296 297 297 297 299 301 300 302 302 304 303 304 303 306 305 306 304 306 306 306 310 309 309 309 309 309 308 310 310 310 310 310 309 310 310 307 306 306 306 306 306 305 304 304 302 300 300 301 300
293 294 294 294 295 296 296 296 297 298 298 298 300 301 303 304 306 304 304 302 301 300 302 304 305 304 307 307 307 307 307 307 308 310 309 309 310 310 310 309 308 307 305 305 305 305 304 304 303 303 302 301 299 299
294 293 293 294 294 295 295 296 296 297 297 299 301 303 302 303 303 303 303 300 300 299 299 301 302 303 305 304 304 306 307 306 307 307 309 309 309 308 309 306 307 306 305 304 303 303 303 303 303 303 301 300 298 297
294 294 294 294 295 295 296 296 296 297 298 299 299 300 300 301 301 300 301 301 301 301 300 301 302 301 303 303 305 302 304 306 308 309 308 308 307 308 305 305 305 304 303 303 303 302 302 303 302 301 301 299 298 297
294 295 295 295 296 296 296 297 297 297 298 298 298 298 299 299 294 293 294 295 297 297 297 297 296 295 298 299 301 301 298 297 299 302 305 305 305 305 305 304 304 302 302 302 300 300 300 300 300 300 299 298 296 295
295 296 297 297 298 298 298 298 298 298 299 299 299 299 299 295 293 291 291 292 292 292 292 293 294 293 293 294 296 298 297 295 295 296 297 300 303 304 304 305 303 303 301 300 299 298 298 298 298 299 299 298 297 295
296 297 298 298 299 299 299 299 299 299 299 300 299 299 300 297 295 292 289 290 290 290 290 291 291 292 291 292 293 294 293 292 294 296 298 299 300 303 304 304 303 303 303 302 301 299 298 299 298 297 297 296 295 293
299 299 299 299 300 299 299 300 300 300 300 300 299 298 296 293 291 291 289 288 289 289 290 290 291 291 292 292 292 292 292 292 292 295 296 297 298 299 299 299 301 302 302 302 301 300 299 297 296 295 294 292 290 288

GFSWCAN_925_thetae_036.txt.gz
Theta_e
303 304 305 304 304 304 304 304 304 303 302 302 302 302 302 302 302 303 301 301 301 302 303 303 304 306 307 306 308 307 306 303 304 307 310 311 310 311 313 315 316 317 318 319 317 322 318 313 315 322 318 316 319 319
304 304 304 303 303 303 303 303 302 302 301 301 301 301 301 302 302 303 301 301 301 301 304 305 305 305 305 306 306 306 305 305 305 308 308 309 312 310 312 314 312 317 315 315 313 314 310 313 315 315 316 317 318 319
303 303 302 302 302 302 298 296 298 299 300 300 300 300 301 301 302 302 302 301 300 299 302 303 305 308 308 307 307 308 301 302 303 304 303 309 312 311 314 311 314 313 313 315 315 314 314 315 314 315 316 316 315 316
302 302 301 301 300 297 297 296 297 298 299 300 300 300 301 301 302 302 302 301 300 302 307 304 306 306 307 309 308 307 304 304 303 305 307 309 311 311 311 312 314 309 310 311 315 313 312 314 314 315 315 315 315 314
301 300 300 298 296 295 294 296 295 296 298 298 299 301 301 301 301 301 301 301 300 303 308 306 305 307 307 307 308 308 305 305 306 307 309 312 312 314 312 309 311 310 313 313 313 310 311 312 312 313 314 315 315 315
297 295 294 295 295 296 296 296 296 295 296 298 300 300 300 301 301 301 303 305 303 300 306 308 304 305 307 308 308 307 306 306 306 309 312 312 313 311 311 311 309 309 310 311 313 311 311 311 312 311 313 314 314 314
293 295 295 295 296 295 296 296 296 297 297 297 298 298 299 301 301 301 305 305 304 303 308 307 305 306 308 309 310 307 307 307 309 312 312 310 310 308 308 311 310 310 310 310 311 310 312 312 313 312 313 314 314 316
293 293 294 294 294 295 295 296 296 297 297 296 296 298 301 302 302 301 305 305 306 307 306 307 306 306 309 309 310 308 310 310 309 309 308 311 308 307 309 309 310 310 309 309 311 311 312 312 314 314 313 314 316 316
294 294 294 294 295 295 295 295 296 296 296 300 302 304 304 303 305 308 307 307 307 307 308 308 303 305 310 311 310 306 306 309 310 311 311 310 308 306 308 309 310 310 309 309 310 312 312 314 314 314 313 313 315 315
293 293 294 294 294 294 294 295 295 296 300 303 306 306 309 305 304 306 306 307 306 306 307 310 305 307 308 310 312 308 306 309 311 312 311 310 308 309 308 309 308 309 309 308 309 311 311 311 313 312 311 311 312 313
292 293 293 293 293 294 294 296 296 298 301 300 300 303 301 302 304 307 310 306 306 309 306 305 305 305 307 311 312 306 307 308 310 311 316 313 310 311 309 310 310 309 309 309 310 311 310 310 309 309 310 310 310 310
292 292 292 293 293 294 296 297 297 298 298 298 299 300 301 303 306 309 309 310 311 311 307 307 307 306 308 307 306 306 308 309 312 312 314 314 312 309 309 311 310 309 309 309 309 310 310 310 309 308 308 308 308 308
292 292 292 293 293 295 297 297 296 296 296 300 302 303 303 304 307 309 307 310 314 311 311 311 312 311 308 308 307 306 307 305 306 304 309 311 311 309 308 310 309 310 309 310 310 311 311 312 310 308 306 307 307 306
291 292 292 294 295 296 295 295 295 294 298 303 305 304 305 304 307 307 307 308 311 312 312 309 312 310 308 309 310 312 308 307 307 305 308 310 312 312 311 309 309 309 310 310 311 311 311 309 309 308 306 306 305 306
291 292 294 296 295 294 294 294 293 295 299 303 305 307 306 305 306 307 308 309 311 312 310 309 308 308 309 312 311 309 311 306 301 301 304 309 310 310 311 309 308 308 307 309 310 309 309 309 309 308 306 306 305 304
291 292 295 293 293 292 291 293 295 296 300 302 304 305 304 305 306 307 307 311 312 312 312 307 308 309 311 309 311 311 306 306 302 302 308 309 311 310 310 308 307 307 306 306 308 309 309 309 308 307 307 306 305 303
292 293 292 292 292 292 292 295 299 300 299 303 304 302 303 304 305 306 306 306 309 312 314 314 312 311 308 308 308 306 307 303 304 305 308 310 311 311 310 309 309 308 306 307 308 309 308 307 307 306 305 304 304 302
291 290 291 291 292 294 295 298 299 301 303 302 302 301 299 300 301 303 304 305 309 312 312 313 312 312 309 310 305 307 307 307 308 309 309 309 310 310 310 308 308 309 307 308 310 309 308 306 305 304 304 303 303 303
291 291 291 292 293 295 295 297 300 300 300 300 300 301 301 303 304 304 305 306 306 309 311 311 313 310 309 308 309 310 310 310 309 309 309 308 308 309 310 309 309 308 307 309 309 309 308 308 307 305 303 302 301 301
291 291 291 293 293 295 297 296 298 300 302 300 299 300 300 301 302 303 305 305 307 311 313 314 311 308 307 307 307 308 308 309 309 310 310 308 308 309 308 308 307 308 306 307 308 308 307 307 306 305 304 302 301 300
292 292 292 292 295 295 296 296 297 298 300 301 301 299 299 300 301 303 303 302 303 308 311 310 309 307 307 305 306 306 306 307 308 310 309 308 308 309 309 309 308 306 307 306 305 307 308 307 305 304 304 302 301 300
291 292 292 292 294 295 295 296 296 296 297 297 297 296 296 297 297 298 298 301 302 303 305 307 308 308 309 308 307 307 308 309 308 308 308 308 309 308 308 307 307 306 305 306 306 306 306 307 305 304 302 302 301 300
292 293 293 293 295 294 294 296 298 298 299 299 299 300 299 299 299 299 301 302 302 303 305 305 306 308 308 309 310 309 309 308 308 308 307 309 309 309 309 308 308 307 305 305 307 307 304 306 305 303 301 301 300 298
293 292 295 295 293 291 296 297 297 298 299 297 298 298 298 298 299 300 302 300 304 304 304 305 306 308 308 308 307 309 309 309 306 307 308 308 308 307 309 309 310 309 308 306 306 305 304 305 304 303 302 300 298 297
291 288 292 289 293 296 297 297 297 296 297 298 298 298 298 298 298 299 300 303 302 302 303 304 305 304 307 308 307 305 307 308 305 304 307 307 308 308 309 309 309 308 307 306 305 305 303 304 303 303 302 300 298 297
289 291 290 294 294 296 296 297 296 295 296 298 300 300 298 298 301 303 304 302 300 300 301 303 304 303 304 304 306 306 306 308 308 306 307 308 309 308 308 307 306 307 307 307 306 304 303 302 302 302 301 300 299 297
289 288 291 292 291 292 292 293 293 294 296 297 297 297 298 303 303 302 299 299 300 298 299 300 301 302 302 304 304 305 306 307 308 308 309 309 309 309 309 308 307 307 306 306 306 305 304 302 301 300 300 299 298 297
292 292 292 291 291 291 293 293 294 295 296 297 298 299 299 301 301 299 296 298 300 299 299 299 297 299 300 301 298 299 301 304 307 308 308 308 308 308 308 308 309 308 306 306 305 304 304 303 301 300 299 299 298 297
293 293 293 293 293 293 293 293 294 294 295 296 296 298 300 299 295 293 293 294 294 295 296 295 294 295 297 297 298 296 296 298 301 303 304 303 303 306 305 305 303 302 306 305 305 305 304 303 302 300 299 298 297 296
294 293 294 294 294 294 294 295 294 294 294 294 295 296 298 293 290 290 290 290 291 292 292 293 294 293 294 295 296 297 295 295 295 297 300 300 301 302 304 304 304 304 301 304 304 303 303 302 300 299 297 296 296 295
294 295 295 296 296 295 295 295 295 296 296 296 296 296 295 293 291 288 288 289 289 290 290 292 292 291 292 293 294 294 294 294 294 296 296 297 300 302 303 304 304 304 299 298 301 301 300 299 298 296 295 295 294 294
295 297 298 298 297 295 297 297 296 297 297 297 297 296 297 293 292 289 288 288 288 289 290 291 291 291 292 292 292 292 291 291 293 295 297 297 297 298 301 302 302 303 302 298 299 299 299 298 297 295 295 294 293 293
296 297 298 299 299 297 297 297 297 297 297 297 295 293 291 290 289 288 288 287 287 288 290 290 290 289 290 290 291 291 291 290 291 292 294 296 297 297 296 297 298 300 300 298 297 297 297 297 295 294 292 291 290 289

GFSWCAN_925_thetae_042.txt.gz
Theta_e
303 303 303 303 303 302 302 301 300 299 299 298 297 299 300 300 300 300 302 303 301 302 301 301 300 300 301 302 305 305 305 302 302 306 307 307 309 311 312 312 314 314 315 314 315 317 316 308 306 316 316 316 316 315
304 303 303 302 302 301 300 298 296 296 297 297 298 298 299 299 299 300 302 303 302 301 301 302 301 301 302 301 303 304 305 305 305 308 306 307 305 309 311 314 310 311 311 313 311 312 309 308 307 308 309 315 315 315
303 302 302 301 298 295 294 296 296 297 297 298 298 298 298 298 300 301 301 302 301 301 301 299 299 302 301 301 301 303 301 303 304 305 307 308 309 310 313 313 313 309 309 313 313 311 311 311 310 312 313 313 314 314
302 301 298 293 295 295 296 296 296 296 297 297 297 297 298 298 300 301 301 302 302 300 302 300 302 303 304 304 302 300 302 301 303 305 307 308 310 309 312 312 312 310 311 312 313 312 311 311 310 312 314 314 314 317
300 297 292 292 294 295 295 295 296 296 296 296 297 297 298 298 299 299 300 301 301 301 304 302 301 303 305 304 304 303 303 305 306 308 308 310 311 312 312 309 310 309 312 314 314 311 312 311 311 312 314 315 315 317
296 292 291 294 293 294 294 295 295 295 295 296 296 297 297 298 298 300 302 303 302 301 301 304 301 303 304 305 304 304 304 305 306 308 310 309 308 312 315 308 305 306 308 310 312 310 311 312 313 314 316 316 315 315
291 290 293 293 293 294 294 294 294 295 295 296 297 297 298 298 299 301 302 302 301 301 301 306 302 303 305 307 305 305 306 307 308 310 312 305 308 312 309 306 304 305 307 307 310 311 313 313 313 312 313 314 314 313
290 292 293 293 293 293 294 294 294 296 297 296 297 299 300 302 300 300 301 302 301 302 304 308 304 301 305 308 308 305 308 308 308 311 309 308 306 304 308 304 304 305 307 308 309 310 311 310 309 309 310 311 312 312
291 292 293 292 293 293 293 294 295 296 296 295 298 303 302 302 302 303 304 306 302 302 307 305 304 301 301 309 311 310 309 313 310 313 309 310 308 306 305 304 307 307 308 307 307 309 309 308 308 308 308 309 310 310
292 292 292 292 292 293 293 295 296 296 295 296 300 303 307 303 301 302 307 306 304 304 306 308 304 304 303 303 305 309 306 309 311 311 311 312 308 306 304 303 305 306 308 307 308 309 308 307 306 306 307 307 306 307
292 292 292 292 292 293 294 295 296 295 295 294 293 299 299 300 303 305 307 308 304 305 303 304 305 307 302 304 304 307 308 305 311 308 314 312 310 308 306 306 306 306 308 307 307 309 309 306 305 305 306 306 305 304
291 291 291 292 292 294 295 295 294 294 294 294 294 295 298 300 301 307 306 308 306 306 305 306 305 303 302 302 309 306 307 306 311 307 311 311 307 308 307 307 307 307 308 308 307 307 306 305 304 303 304 303 304 303
291 291 291 292 293 295 295 294 293 293 291 296 299 301 303 302 304 305 305 309 310 309 311 311 312 307 303 304 307 302 307 306 302 302 307 306 306 306 306 307 308 307 307 308 308 307 306 305 304 303 302 302 302 303
291 291 292 292 293 294 293 293 293 294 294 297 301 301 303 301 302 301 303 304 308 310 310 311 312 312 307 306 305 308 306 301 301 304 305 305 307 308 307 306 307 307 307 308 309 307 306 304 303 302 301 301 300 300
291 291 292 292 293 292 293 292 293 293 294 296 300 301 301 300 300 302 305 306 307 308 310 312 311 310 310 310 307 306 309 304 300 301 299 302 306 307 307 307 306 306 307 307 308 306 305 304 303 301 300 300 299 299
291 291 293 293 291 290 292 292 293 294 295 296 296 300 301 303 301 301 303 303 303 306 307 309 310 310 311 308 308 309 304 299 300 297 301 302 306 306 307 308 306 306 306 305 307 306 305 304 302 301 300 298 298 298
291 290 290 290 291 292 292 294 294 296 295 296 297 298 299 298 300 298 298 300 298 301 308 310 311 313 310 309 308 300 302 300 300 300 300 304 306 306 306 307 307 306 306 305 307 305 304 303 302 300 299 298 297 296
291 290 290 291 292 292 292 294 296 297 296 296 298 296 297 297 298 298 297 297 300 304 309 311 310 312 311 311 308 306 307 303 301 302 303 304 306 306 307 307 307 306 305 306 306 304 303 302 300 298 299 298 296 295
291 291 291 291 293 292 292 292 295 297 296 295 296 296 297 297 296 298 298 299 299 302 304 308 310 311 310 307 307 308 307 305 307 306 306 306 306 307 307 307 308 306 305 306 305 303 303 302 301 299 298 297 296 295
290 290 291 291 292 293 293 293 294 295 296 297 296 297 297 297 296 297 297 297 300 305 308 309 309 308 307 306 307 306 306 304 306 307 306 306 306 307 306 306 306 306 305 306 306 304 302 300 300 299 298 297 296 295
291 291 291 291 291 291 291 292 292 292 293 295 296 294 294 294 294 294 295 295 297 300 304 305 304 304 303 303 304 304 304 305 306 306 308 307 305 306 306 307 307 305 305 306 305 304 303 302 299 298 298 297 296 295
291 291 291 291 291 291 291 292 292 292 293 293 293 294 294 295 296 296 295 297 301 302 302 302 302 303 304 304 304 305 305 306 305 305 305 307 308 306 306 305 303 303 305 306 306 305 304 302 300 298 297 296 295 295
292 292 292 292 293 291 290 292 294 295 297 297 296 297 297 296 296 295 297 300 302 301 301 302 303 302 302 304 305 305 304 304 303 302 303 305 308 307 307 305 305 304 304 305 307 306 304 302 300 298 297 296 295 294
292 292 291 292 293 292 292 294 295 297 297 294 294 295 297 296 296 297 299 302 300 300 299 299 300 301 302 302 303 303 303 303 303 304 304 304 305 307 307 306 306 306 306 306 306 305 303 301 300 298 297 295 295 294
291 286 290 286 289 293 295 295 293 293 293 292 294 297 298 298 299 302 301 301 300 300 299 298 298 299 300 301 300 300 300 300 300 301 303 304 304 305 305 306 307 307 306 304 303 304 302 301 300 299 297 296 295 293
289 288 288 292 291 292 292 293 292 292 291 293 296 297 297 298 301 301 298 294 295 297 296 296 296 297 298 298 298 298 298 299 299 303 304 303 305 305 304 305 305 306 306 306 304 304 303 301 300 299 298 297 296 294
288 286 289 289 291 290 291 290 290 290 293 294 296 296 298 299 298 296 295 292 292 292 294 294 294 295 296 297 297 296 296 297 299 301 303 302 302 303 304 304 304 306 306 306 305 304 303 302 300 300 298 297 297 296
290 291 292 291 292 291 293 292 292 293 293 294 295 296 298 297 293 291 292 290 290 291 292 292 293 293 294 295 295 294 293 294 297 299 300 300 300 300 302 303 303 303 305 305 305 305 304 303 302 301 299 298 297 296
292 291 292 292 292 292 292 293 292 291 291 292 294 295 296 290 288 288 289 288 289 290 291 292 292 292 293 293 293 293 291 291 292 295 296 297 299 299 300 301 302 303 303 303 304 304 304 303 302 302 301 300 299 297
291 291 292 294 294 295 295 293 292 293 291 292 293 291 290 288 287 287 287 288 289 290 290 291 290 290 291 292 291 291 290 288 288 290 293 294 294 295 297 297 298 301 303 303 302 302 303 302 302 301 298 297 296 294
290 292 294 293 294 294 295 293 294 294 294 293 295 295 290 289 288 286 285 286 288 289 288 288 289 288 289 289 289 289 289 287 286 287 288 291 293 294 294 295 295 298 300 302 301 299 300 300 299 298 296 295 293 293
292 294 296 296 294 293 294 295 294 296 294 293 291 295 292 289 288 286 285 284 285 286 286 287 287 287 287 286 285 285 285 285 284 286 287 289 291 293 294 294 294 294 296 298 300 300 300 299 298 297 296 295 293 292
291 292 295 296 292 295 294 295 296 292 292 290 290 290 288 286 286 286 285 284 284 284 284 285 286 286 284 283 283 284 285 285 287 289 290 290 290 292 292 293 293 293 293 293 295 298 298 297 296 296 295 293 292 290

GFSWCAN_925_thetae_045.txt.gz
Theta_e
304 304 303 303 302 301 300 297 296 297 298 298 298 298 298 299 299 300 300 300 301 302 302 302 302 303 302 302 303 305 306 307 309 311 309 309 308 310 311 311 313 314 316 316 316 317 318 311 309 311 311 309 310 317
304 304 303 302 300 295 294 296 297 297 297 297 297 298 298 298 298 300 301 301 302 301 302 302 302 302 302 302 302 304 307 307 308 311 309 310 310 310 311 313 312 316 313 314 312 315 312 310 309 309 309 312 314 314
303 303 302 300 295 293 296 295 296 296 296 296 297 296 297 298 298 300 301 302 301 301 302 302 302 302 301 301 301 303 305 306 306 306 308 309 311 310 313 315 314 312 311 314 315 313 312 312 310 309 310 313 314 314
303 302 300 295 292 294 294 295 294 295 295 295 296 296 297 297 298 298 300 300 301 301 303 304 302 302 303 302 301 301 304 303 305 306 308 310 312 309 313 313 313 312 311 312 314 312 312 312 311 312 312 314 315 317
302 301 295 291 293 294 294 294 294 295 295 295 296 296 297 297 296 297 298 299 300 301 304 304 302 303 304 303 301 301 301 302 307 309 309 310 310 311 313 312 313 311 312 314 316 312 313 312 313 313 314 314 314 315
300 295 290 293 294 294 293 294 294 294 295 296 297 298 298 297 297 298 302 302 302 301 302 304 303 305 305 305 303 302 301 302 306 309 311 311 311 312 315 314 311 309 309 310 312 311 313 312 313 312 313 314 314 314
297 290 290 293 293 293 294 294 294 295 296 297 297 296 298 298 299 299 302 301 302 301 302 305 306 305 304 308 307 306 305 306 308 311 311 311 312 312 314 313 310 309 310 311 311 311 310 309 310 310 311 312 312 312
291 290 292 293 293 293 293 293 294 295 296 296 294 296 298 300 300 300 300 300 301 300 302 307 308 306 306 311 311 308 309 308 309 311 312 313 311 309 315 312 309 310 311 311 311 310 309 308 307 308 308 309 310 310
289 292 293 293 293 293 293 293 294 295 295 294 296 302 302 302 302 302 303 303 302 302 305 307 308 310 305 312 312 312 311 313 311 313 313 312 312 315 314 310 310 310 311 311 311 310 309 308 307 307 307 308 308 308
291 292 292 292 292 293 293 294 295 296 294 294 296 302 306 304 300 300 303 305 303 303 303 307 306 308 306 308 309 312 309 313 314 313 312 315 314 313 311 309 309 310 311 311 312 313 309 308 306 306 307 307 306 307
292 292 292 292 292 293 294 295 295 294 293 293 294 298 297 297 302 305 307 308 306 307 306 307 306 308 306 309 310 309 311 310 314 313 314 312 314 313 311 310 309 311 311 310 311 310 308 307 306 305 305 305 305 305
291 291 292 292 292 293 295 294 294 294 294 294 293 294 296 300 303 306 306 306 307 307 307 308 307 306 307 306 310 309 312 309 311 309 314 312 313 312 311 311 311 311 311 311 311 310 308 307 305 304 304 304 304 303
291 291 291 292 292 293 295 293 293 294 293 294 297 300 301 302 304 303 305 308 310 309 310 310 311 307 306 307 310 309 312 313 307 312 313 314 312 311 310 311 311 311 311 311 311 309 308 306 304 303 303 302 301 302
291 291 291 292 292 293 293 292 292 294 293 295 299 299 301 302 302 304 306 307 309 309 309 309 309 307 310 309 311 311 309 310 313 314 314 313 312 312 311 310 312 312 312 311 311 309 308 306 304 302 301 300 299 299
292 292 292 292 292 292 292 291 293 293 293 294 297 299 301 302 302 303 304 306 307 307 308 309 312 312 310 308 310 310 312 314 312 314 312 311 311 312 311 310 311 312 312 311 311 309 307 306 303 302 300 299 298 298
292 291 292 292 290 291 292 292 293 293 293 294 294 297 300 302 304 304 304 304 304 306 304 308 311 312 312 311 312 313 313 315 316 310 310 308 311 311 311 311 311 312 311 311 310 308 307 305 303 301 300 299 297 297
291 290 290 290 291 293 292 293 292 294 294 295 297 298 298 299 300 301 301 302 302 303 307 311 312 312 309 311 313 311 314 314 310 309 307 308 311 311 311 311 311 311 311 311 309 307 305 304 302 301 301 299 296 296
291 290 291 291 292 292 292 293 294 295 294 296 297 298 299 301 301 301 301 301 301 305 308 310 311 312 312 313 314 312 310 310 309 309 309 308 309 310 310 311 310 310 310 310 309 306 305 304 303 302 300 299 297 296
291 291 291 291 292 292 292 293 294 295 296 297 298 298 299 299 300 300 300 301 301 301 304 308 310 311 312 311 311 312 313 313 312 312 311 310 309 310 310 310 310 309 309 310 308 307 306 304 302 301 300 300 298 296
290 291 291 290 291 292 293 294 294 295 296 296 297 298 299 297 298 299 299 300 299 303 306 308 309 308 308 307 306 307 308 308 309 310 312 311 310 310 311 311 311 309 309 309 308 306 305 303 301 301 300 299 299 296
291 291 291 291 291 291 293 293 295 295 296 297 297 296 296 295 296 297 298 297 301 304 305 303 303 304 304 304 305 305 307 307 308 310 311 312 311 311 310 310 310 309 309 309 309 306 305 304 301 300 299 298 297 295
291 291 291 290 291 292 293 293 294 294 295 295 296 296 297 298 299 299 298 303 303 302 302 302 302 303 303 305 305 304 304 305 306 306 306 307 311 312 311 310 309 310 309 309 309 307 306 303 301 300 299 297 297 295
291 291 292 291 292 292 292 292 295 296 297 297 296 297 298 298 298 298 302 302 299 299 299 299 299 300 302 302 302 302 301 301 303 305 306 307 308 309 310 310 309 310 310 309 309 308 306 303 299 299 298 298 297 295
292 292 292 292 292 293 294 294 296 296 296 294 292 295 297 298 299 300 302 301 297 298 297 297 297 299 299 299 299 300 300 300 301 302 305 306 308 309 309 310 309 308 309 309 308 307 304 302 300 299 298 298 298 297
290 288 290 286 291 292 294 295 294 294 292 292 293 296 298 298 301 300 297 294 294 294 294 295 295 296 298 299 298 298 297 298 299 302 304 304 306 307 308 309 309 308 307 308 307 306 304 302 301 300 299 298 298 297
286 289 290 292 293 294 294 292 292 292 292 292 294 296 296 298 300 298 296 293 292 293 293 293 294 295 296 296 297 296 295 295 297 302 302 302 303 306 309 309 310 309 306 307 307 307 305 303 302 300 299 298 297 296
288 290 291 291 292 293 293 293 292 292 292 293 294 295 298 299 296 294 293 292 291 290 291 292 293 293 294 294 294 294 293 292 294 299 300 300 300 301 303 305 306 306 306 306 306 306 305 304 303 302 300 298 296 296
291 292 293 292 292 293 293 293 293 293 293 295 296 296 296 294 292 291 291 289 289 290 291 292 291 292 292 292 292 291 290 290 293 296 297 297 297 296 295 298 301 302 304 306 306 306 305 304 303 302 301 299 298 296
292 292 293 293 293 293 293 293 293 293 293 294 295 296 293 290 289 288 288 288 290 290 290 290 290 290 290 290 290 290 288 287 289 292 294 294 293 293 293 294 296 298 301 302 304 306 306 305 304 303 302 300 299 297
293 292 293 294 294 295 295 294 295 294 295 294 293 291 289 288 287 286 287 287 288 288 288 288 288 287 288 288 288 289 288 286 285 286 289 290 290 290 292 292 295 297 298 300 301 302 303 303 303 301 300 299 297 296
293 293 294 294 295 295 296 296 295 295 296 296 295 294 290 289 287 286 285 286 287 287 287 287 287 286 286 286 286 287 287 286 284 284 284 286 287 290 290 291 292 294 296 297 300 300 301 302 302 301 299 298 297 296
294 294 295 296 296 296 296 297 297 297 295 294 294 292 291 289 289 286 284 285 285 286 285 286 286 285 284 284 284 284 284 284 283 283 283 284 284 288 290 289 290 291 292 294 295 299 300 301 301 300 298 297 297 296
295 295 295 296 296 296 296 295 295 294 293 292 291 290 289 288 287 287 285 284 283 283 284 285 285 284 284 282 282 282 282 283 284 285 286 286 286 286 287 287 288 289 290 291 290 291 292 294 296 296 297 296 295 294

GFSWCAN_925_thetae_048.txt.gz
Theta_e
305 304 304 303 303 301 296 294 296 296 297 296 297 297 298 298 298 299 301 302 302 303 303 302 304 305 304 304 305 305 307 311 312 314 313 313 312 312 312 312 315 316 317 316 317 319 322 313 311 314 314 310 310 311
304 304 304 303 302 298 293 295 295 296 296 296 296 297 297 297 298 299 300 302 302 303 302 302 302 302 303 304 304 304 307 308 309 313 313 313 312 312 312 316 312 315 315 317 315 317 314 313 312 309 309 310 311 312
304 304 303 302 299 293 293 294 294 295 295 296 296 296 296 297 297 299 301 301 302 302 303 304 307 306 304 304 304 305 306 307 310 307 309 311 310 312 316 315 314 312 312 315 314 314 314 313 311 312 310 311 312 313
304 304 303 300 293 291 294 294 294 295 295 295 296 296 297 297 297 297 299 301 302 302 303 306 305 306 306 304 304 304 308 307 308 307 308 310 313 312 315 315 315 313 312 314 314 313 313 312 312 312 311 311 311 314
304 303 302 295 291 293 294 294 294 295 295 296 296 297 298 297 297 298 297 298 300 302 305 306 304 306 307 306 305 305 305 307 307 308 310 310 310 313 313 314 316 311 312 315 317 312 314 312 310 309 310 311 311 314
303 302 299 291 291 293 294 294 294 294 295 296 297 297 298 297 297 299 301 302 301 300 302 306 307 308 308 308 308 307 306 305 305 309 311 311 311 313 315 318 312 311 311 313 313 313 311 310 308 307 309 311 312 312
302 301 293 290 292 294 294 294 294 294 295 296 297 296 295 296 298 300 304 302 302 301 303 305 308 310 307 309 307 306 306 306 307 308 310 312 314 312 314 317 312 311 312 312 312 311 311 310 309 307 307 309 310 309
300 294 290 292 293 293 293 294 294 295 296 296 293 294 297 299 298 300 301 300 301 301 303 306 308 310 309 313 313 309 309 307 309 311 312 315 314 314 316 314 312 311 311 311 311 311 311 309 307 306 307 308 308 310
293 290 290 293 293 292 293 294 295 296 295 293 294 298 303 302 302 304 302 302 302 301 305 307 309 313 309 311 313 313 311 313 311 312 313 315 314 316 316 313 311 311 312 311 311 311 310 309 307 306 306 307 307 308
290 290 291 293 292 293 293 294 296 295 293 294 296 303 307 304 301 301 303 304 302 303 303 307 307 309 309 310 311 312 313 314 316 315 314 316 316 313 314 313 311 312 312 311 311 311 311 310 307 306 306 306 307 307
290 289 292 292 292 293 293 295 295 293 295 295 295 298 298 297 302 305 307 308 305 306 305 306 307 308 308 311 312 310 313 314 315 315 315 313 315 316 315 313 311 312 312 312 311 310 310 309 306 305 305 305 305 306
289 290 292 292 292 293 293 295 293 294 294 294 294 294 296 301 304 305 307 307 309 309 309 310 310 307 309 310 312 312 314 314 313 312 314 315 314 315 312 312 312 312 311 311 311 310 309 308 305 305 305 303 304 304
290 292 292 292 292 293 293 293 293 292 294 295 296 298 301 302 305 303 305 306 309 310 310 310 311 307 307 309 312 313 315 314 311 314 313 313 314 314 313 313 313 312 311 312 311 309 308 306 305 304 304 301 302 303
290 292 292 292 293 293 293 293 293 293 295 296 298 301 301 303 303 305 306 308 310 311 309 309 311 309 309 311 312 315 314 312 314 314 313 312 312 314 313 312 312 312 311 312 311 309 307 306 305 303 302 301 300 301
292 291 292 292 293 292 292 293 293 293 295 295 297 299 301 303 304 304 305 307 308 307 308 309 310 308 304 307 311 314 315 316 316 317 313 313 315 314 313 312 312 312 311 312 311 309 307 305 305 304 302 300 299 299
290 291 292 291 290 292 293 293 293 293 293 295 296 297 298 300 301 301 302 304 304 303 303 305 308 312 313 312 314 315 316 320 319 316 312 313 315 314 313 313 313 312 311 312 311 309 307 305 305 304 302 300 299 298
290 292 290 290 291 292 293 293 293 294 294 296 297 298 298 299 300 301 301 301 301 303 304 308 310 311 308 311 314 315 318 317 314 314 314 313 314 315 314 313 313 312 312 312 311 309 307 305 305 305 304 301 299 297
292 292 291 292 292 293 293 294 295 295 295 296 297 297 298 299 299 300 300 301 303 303 305 307 310 311 312 313 313 315 314 315 314 315 314 314 313 315 314 313 312 311 311 312 311 309 307 305 306 306 304 302 301 299
292 292 291 291 292 293 293 294 295 296 296 297 297 297 298 299 299 300 300 301 302 302 303 307 307 309 312 311 310 311 311 311 313 314 313 314 313 314 313 313 312 312 311 312 312 310 308 305 305 304 304 302 302 301
291 291 291 291 291 293 294 295 295 296 296 297 298 298 298 299 299 300 301 301 300 301 305 307 308 306 307 305 306 306 307 308 310 311 313 315 313 314 314 313 313 312 311 311 311 309 308 305 304 304 303 302 302 301
292 292 291 292 293 293 294 294 295 296 297 297 298 298 299 299 300 301 301 301 302 303 304 303 303 303 303 304 305 305 305 305 308 311 311 312 312 313 314 313 313 312 312 312 312 310 308 307 304 303 303 302 301 299
292 291 292 292 293 294 295 295 296 296 296 298 298 298 299 300 300 301 302 303 302 299 300 300 300 301 302 303 303 302 302 303 304 307 308 308 311 313 315 313 313 313 312 312 311 311 309 307 304 303 303 301 300 300
292 292 293 293 294 294 295 295 296 296 297 297 297 297 299 300 300 301 302 299 298 296 296 296 296 298 300 300 300 300 301 301 303 304 306 308 310 311 311 313 312 313 313 312 311 311 310 306 303 303 302 302 301 299
292 293 293 294 294 294 295 296 296 295 296 295 295 296 299 300 300 301 298 297 296 295 295 295 295 297 298 298 298 298 298 298 300 301 303 304 307 311 312 313 312 312 312 312 312 311 309 306 304 303 303 302 302 302
292 292 293 292 294 295 295 295 294 295 294 295 295 298 299 299 300 299 297 296 295 295 294 294 294 296 296 297 297 296 295 295 296 297 301 301 303 308 312 312 312 311 312 312 312 311 310 307 305 304 303 303 303 302
292 292 294 294 295 295 295 294 294 295 295 294 296 297 298 300 299 298 296 294 293 293 293 293 293 295 295 294 294 294 293 291 292 297 299 299 298 299 305 311 312 313 311 311 312 311 310 308 307 305 304 303 302 302
292 293 294 294 295 295 295 295 295 295 294 295 296 297 299 298 298 296 294 293 292 291 291 292 291 292 293 292 292 291 291 290 291 294 297 295 295 295 296 298 300 299 303 308 310 311 310 308 307 306 305 304 302 302
294 295 295 296 295 295 294 295 295 295 295 296 296 297 296 295 294 293 293 291 290 291 291 291 291 291 292 292 292 291 290 291 291 293 295 294 293 292 292 294 296 297 300 306 309 310 310 309 308 307 306 305 302 302
295 296 296 296 295 295 295 296 296 296 295 296 296 297 295 292 291 290 290 290 289 290 290 290 290 290 291 291 291 291 289 289 289 291 292 293 292 291 291 292 293 295 296 301 305 306 309 309 308 307 305 305 303 302
296 296 296 296 295 297 298 297 297 297 296 296 296 293 291 289 288 288 289 288 288 288 289 289 289 288 289 289 290 290 289 288 287 287 289 290 289 289 290 291 293 293 295 297 302 304 305 306 306 304 304 304 303 302
296 296 296 296 297 297 297 298 297 297 297 297 297 297 293 290 288 287 286 287 288 288 288 288 288 287 287 287 287 288 288 287 287 286 286 287 288 288 289 290 290 292 294 295 298 300 301 304 305 306 305 304 303 300
296 296 297 297 297 297 297 297 297 296 297 297 295 294 293 292 291 287 285 285 286 286 286 286 286 287 286 286 286 286 285 285 285 284 284 285 285 286 287 288 290 290 292 292 292 294 297 300 301 303 303 302 300 297
297 297 296 297 297 296 296 295 295 296 295 295 294 293 292 291 290 288 285 285 285 285 285 286 286 286 285 284 284 284 284 284 283 283 283 284 284 284 285 286 288 288 288 288 289 289 288 289 289 291 293 295 295 296